Location: Poughquag
(41.6090°N, 73.6820°W)
Time: 03:00:46
(UTC-04:00)

Transit 2A Rocket - Pass Details

Date: 02 June 2020
Orbit: 584 x 919 km, 66.7° (Epoch: 06 July)

Event Time Altitude Azimuth Distance (km) Brightness Sun altitude
Rises 23:23:42 0° 239° (WSW) 3,081 8.0 -22.8°
Reaches altitude 10° 23:26:11 10° 250° (WSW) 2,222 7.4 -22.9°
Maximum altitude 23:30:43 31° 312° (NW) 1,335 6.8 -23.3°
Drops below altitude 10° 23:35:39 10° 14° (NNE) 2,434 8.3 -23.6°
Sets 23:38:30 0° 25° (NNE) 3,425 9.0 -23.7°
